Location: *
(33.8649°S, 62.1526°E)
Time: 18:06:02
(UTC+00:00)

Cosmos 44 Rocket - Pass Details

Date: 04 December 2021
Orbit: 648 x 741 km, 65.1° (Epoch: 23 January)

Event Time Altitude Azimuth Distance (km) Brightness Sun altitude
Exits shadow 19:19:13 10° 249° (WSW) 2,069 6.0 -33.5°
Maximum altitude 19:21:01 12° 226° (SW) 1,944 6.1 -33.6°
Drops below altitude 10° 19:22:53 10° 203° (SSW) 2,092 6.5 -33.6°
Sets 19:26:45 0° 172° (S) 3,029 7.6 -33.7°
